Погода в Павелеце

Погода в Павелеце : погода сейчас, прогноз погоды и архив. Всё, что Вы хотите узнать о погоде в Павелеце!

Поиск расширенной информации на нашем сайте:

Другие новости

Новости СМИ2

Главная страница сайта

Новости сайта

02.10.2013

Напоминаем, что на нашем новом сайте вы можете получить высокодетализированные прогнозы погоды по пунктам России, СНГ и мира (включающие важные для авиации метеовеличины, такие как направление и скорость ветра, видимость, явления погоды, количество и форма облачности, нижняя и верхняя граница облачности), а также ознакомиться с разнообразными материалами по авиационной метеорологии и подборкой полезных ссылок на эту тему.

Сайт Метеоцентр.Азия посвящён разработке технологий оптимизации авиаметеорологического обслуживания, включая проектирование и перспективное создание нескольких автоматизированных авиаметеорологических систем:
- система выпуска высокодетальных прогностических карт явлений погоды для нижнего воздушного пространства по России и ближнему зарубежью;
- система верификации прогнозов TAF (выпускаемых синоптиками официальных АМСГ РФ и ближнего зарубежья) и AUTOTAF (выпускаемых сайтом Метеоцентр.Азия) - выявление ошибок, онлайн-сопоставление с фактической погодой METAR, автоматическое внесение коррективов в прогнозы при резком отклонении фактической погоды от прогноза, подсчёт оправдываемости прогнозов по элементам и в целом;
- система обработки, анализа и отображения авиаметеорологической информации для применения провайдерами метеорологической информации.

Рекомендуем: DONIC level 800 Waldner готовая ракетка

Погода в Павелеце - сегодня

Время (UTC), дата Ветер
(°,м/с) 
Видим.   Явления Облачность Т
(°С)
Тd
(°С)
f(%) Тe
(°С)
Pmin
(гПа)
dP
(гПа)
Po
(мм)
O2
(г/м3)
Тmin Tmax R s Состояние
почвы
15 25.02.17 250 (З) 20000 м    4/0 верхняя 
[Ci fib]
-4.3 -8.9 70 -6  1002.4  1.3  732  301    +1.5     
18 25.02.17 250 (З) 20000 м    4/0 верхняя 
[Ci fib]
-5.5 -10 71 -9  1003.9  1.3  733  302           
21 25.02.17 260 (З) 20000 м    6/0 верхняя 
[Ci fib]
-5.8 -8.4 82 -8  1004.7  0.7  734  303           
00 26.02.17 260 (З) 20000 м    6/0 верхняя 
[Ci fib]
-4.8 -8.3 76 -8  1005.3  0.7  734  302           
03 26.02.17 260 (З) 20000 м    10/0 средняя 
[Ac trans]
-4.1 -6.1 86 -4  1006.2  735  301  -6.9      35  равномерный
сухой снег
100% 
06 26.02.17 310 (СЗ) 3{10}  20000 м  в посл. час снег  8/0 средняя 
[Ac As]
-5.2 -9.7 71 -8  1009.4  737  304           
09 26.02.17 270 (З) 20000 м    6/0 средняя 
[Ac trans]
-2.3 -8.8 61 -5  1011.4  2.2  739  301           
12 26.02.17 250 (З) 5-11{11}  20000 м    6/0 верхняя 
[Ci fib]
-3 -8.5 66 -7  1011.8  0.2  739  302           
15 26.02.17 220 (ЮЗ) 7{11}  20000 м  позёмок  8/0 средняя, верхняя 
[Ac trans|Ci fib]
-4.5 -8.6 73 -9  1011.1  -0.8  738  303    -1.4  0.0     
18 26.02.17 220 (ЮЗ) 7-11{11}  20000 м  позёмок  6/0 верхняя 
[Ci fib]
-3.3 -7.4 73 -8  1009.9  -1  738  302           
21 26.02.17 220 (ЮЗ) 8-12{12}  20000 м  позёмок  10/0 средняя 
[Ac und]
-2.8 -4.8 86 -8  1007.7  -2.1  736  300           
00 27.02.17 220 (ЮЗ) 8-12{13}  2000 м  слаб. снег  10/4 300 м средняя 
[Frnb|As op]
-1.7 -2.8 92 -6  1005.4  -2.1  734  298           
03 27.02.17 230 (ЮЗ) 8-12{12}  20000 м  позёмок{снег}  10/6 300 м средняя 
[Frnb|As op]
-0.7 -1.6 94 -5  1004.2  -1  734  297  -5    36  равномерный
сухой снег
100% 
06 27.02.17 240 (ЮЗ) 7-11{12}  20000 м  слаб. снег  10/6 300 м средняя 
[Frnb|As op]
+0.3 -0.3 96 -4  1004  0.1  734  295           
09 27.02.17 240 (ЮЗ) 7{11}  20000 м  {снег}  10/3 300 м средняя 
[Frnb|As op]
+1.1 -0.2 91 -3  1004.6  0.6  734  295           
12 27.02.17 260 (З) 4{10}  20000 м  {снег}  10/3 300 м средняя 
[Frnb|As op]
+1.9 -0.1 87 1005.5  735  294           
15 27.02.17 260 (З) 20000 м    10/0 средняя 
[Ac trans]
+1.4 -0.4 88 1007.3  1.7  736  295    +2.3  0.7     
18 27.02.17 280 (З) 20000 м    10/0 средняя 
[Ac trans]
+1.3 -0.3 89 +1  1010.3  2.9  738  296           
21 27.02.17 280 (З) 20000 м    ясно 
+0.3 -1.1 90 +1  1013.2  2.8  740  298           
00 28.02.17 280 (З) 20000 м    ясно 
-2.3 -2.9 96 -2  1015.8  2.2  742  302           
03 28.02.17 тихо ()   20000 м    ясно 
-4.6 -4.9 98 -5  1018.2  1.2  744  305  -4.6      32  равномерный
сухой снег
100% 
06 28.02.17 210 (ЮЗ) 20000 м    10/0 средняя 
[Ac trans]
-2.2 -2.6 97 -2  1020.4  2.3  745  303  -5.3         
09 28.02.17 180 (Ю) 20000 м    10/0 средняя, верхняя 
[Ac trans|Ci fib]
+1 -1.9 81 1021  0.9  746  300           
12 28.02.17 180 (Ю) 20000 м    10/0 средняя 
[Ac As]
+1.5 -2 78 -1  1020.9  746  299           
15 28.02.17 170 (Ю) 20000 м    10/0 средняя 
[Ac As]
+1.1 -1.3 84 1020.5  -0.5  746  299    +1.8       
Время (UTC), дата Ветер
(°,м/с) 
Видим.   Явления Облачность Т
(°С)
Тd
(°С)
f(%) Тe
(°С)
Pmin
(гПа)
dP
(гПа)
Po
(мм)
O2
(г/м3)
Тmin Tmax R s Состояние
почвы

Для получения пояснительной информации подведите курсор к названию столбца.

ПОГОДА в Павелеце - архив

Всё, что Вы хотите узнать о погоде в Павелеце - удобно и подробно!

Выберите нужную дату (начиная с 1 января 2015* года) и нажмите кнопку "Найти".
Будут отображены архивные сводки погоды по пункту Павелец, начиная с указанной даты.


Отображать данные в формате CSV (для использования в таблицах Excel)


Внимание! Наш архив погоды предназначен исключительно для личного некоммерческого использования в познавательных целях. Если Вам необходимы официальные справки о состоянии погоды (для производственных, юридических, коммерческих и т.п. целей), обращайтесь в органы Росгидромета.

*Примечание: данная дата относится к архиву по метеостанциям СССР (Россия, СНГ, Балтия).
Архив по метеостанциям Зарубежной Европы и Азии (кроме Китая) хранится 10 дней, по другим регионам земного шара (Китай, Африка, Америка, Австралия, Океания) - 1 день.

Павелец - район местоположения метеостанции


Название, широта, долгота, высота метеостанции:
Павелец 53.8°ш. 39.2°д. 209 м над ур. моря [Российская Федерация]

Дополнительная информация

В oтличие oт бoльшинства пoгoдных сайтoв мы публикуем пoдрoбную метеoинфoрмацию в детальнoм прoфессиoнальнoм фoрмате.

Характеристики температуры и влажнoсти вoздуха измеряются на высoте 2 м в тени вдали oт зданий и деревьев.
Скoрoсть ветра измеряется на высoте 10 м (на урoвне рoста челoвека скoрoсть ветра ниже в 1.5-2 раза). Если метеoстанция нахoдится в гoрoде или в лесу, тo скoрoсть ветра занижена на 2-4 м/с пo сравнению с oткрытым местoм. Скoрoсть ветра над акватoриями крупных рек и oзёр, а также на вершинах хoлмoв на 2-5 м/с выше, чем в oбычных услoвиях.
Атмoсфернoе давление в разных тoчках местнoсти мoжет значительнo oтличаться oт давления на метеoстанции, в зависимoсти oт услoвий рельефа (при пoдъёме на 10 м давление пoнижается примернo на 1 мм рт.ст.).